indice_tiempo,nivel_general,elaboracion_productos_alimenticios_bebidas,elaboracion_productos_tabaco,fabricacion_productos_textiles,fabricacion_prendas_vestir_terminacion_tenido_pieles,curtido_cueros_art_marroquineria_talabarteria_calzado,prod_madera_fab_corcho_excepto_muebles_art_paja_trenzables,fabricacion_papel_productos_papel,edicion_impresion_reproduccion_grabaciones,fab_coque_prod_refinacion_petroleo_combustible_nuclear,fabricacion_sustancias_productos_quimicos,fabricacion_productos_caucho_plastico,fabricacion_productos_minerales_no_metalicos,fabricacion_metales_comunes,fabricacion_productos_elaborados_metal_excepto_maquinaria,fabricacion_maquinaria_equipos,fabricacion_maquinaria_oficina_contabilidad_informatica,fabricacion_maquinaria_aparatos_electronicos,fabricacion_equipos_aparatos_radio_television_comunicaciones,fabricacion_instrumentos_medicos_opticos_precision_relojes,fabricacion_vehiculos_automotores_remolques_semirremolques,fabricacion_equipo_transporte,fabricacion_muebles_colchones_industrias_manufactureras
1990-01-01,124.78709957221511,107.1346812239699,165.02888601801683,164.70378811156874,175.70540355585453,132.53007184830957,122.72134440772255,119.55988157160152,106.73866511988365,295.86154473506855,113.01333852187628,93.01459500255424,128.78085072703783,165.66442829028378,104.43540187811897,140.96247359159943,145.51353122389528,154.69692941833077,122.91620761921014,134.14139291847042,111.80394642304519,151.2078442669271,111.81167726680275
1990-04-01,121.9578959189712,105.89293032207695,150.76093854930886,162.0497210743469,167.90433446617715,134.29406466491517,110.84720909813913,119.96989116278614,104.86735312107777,298.72655285969034,109.58711025100939,92.27565775954402,122.39688738179956,162.23992342544648,98.71898979406946,138.0452393621687,140.95297794857484,149.46759952575235,117.82002905913998,130.0649140755749,108.70063785127938,144.02066604093847,109.8945583895862
1990-07-01,122.22114729084836,110.46470112259776,137.45349293307905,157.56657079333092,159.76843991349295,137.624636555229,110.19114109880056,119.84978296450895,103.45136348118255,295.44297820010263,109.58443200949577,93.16468946215532,119.49363945282543,159.88488241839877,99.03924882346604,138.54844342514448,136.65814333651838,146.581384576799,118.73762665593792,135.47880430119903,106.38627494287435,146.38551821073708,108.85679457361717
1990-10-01,121.78181948366066,110.50601463213901,141.79053731991522,153.61542739279562,158.5925575073858,137.3220945212288,109.50539935249544,119.83038884197977,102.88079676829847,290.8552917696911,110.21892826576853,92.99082126105867,118.20893442565509,158.54131383019225,101.59726613462706,141.32173656045154,138.65746277868183,142.27501363099196,114.99659662675042,137.67689064162712,103.90794513342533,145.7192292182171,109.85760537763817
1991-01-01,118.93228145221066,106.16643561213404,169.4735728538376,149.81850086090634,153.38870550076564,136.24052703298426,113.61660426425163,117.50220171943236,102.70249525702454,292.7542803579336,107.8524863384794,92.78271288901514,117.63947822229785,156.0707287076361,98.9943026529139,133.2431362713463,140.8367152451089,140.3394098858366,116.22196849476494,137.88084205340425,100.35431354413787,142.6484687681549,107.00435180121298
1991-04-01,117.5259540236965,107.83662136017895,174.7782163974805,147.82042328946798,148.72983519613703,137.7300778550623,116.90992652524231,114.54409132650981,96.12540387875738,280.5310245202351,108.18608138613085,91.07644016315255,115.93259964157403,151.69337651217694,99.13718860212043,125.90237092036477,136.73884149220396,137.96447771004574,111.62478535949518,141.6330381515741,94.92881401665701,135.13992582859674,107.90976156428216
1991-07-01,116.06533945970084,107.19289353533581,141.7012295737796,146.95237936537507,146.29664902225755,133.35334025867795,116.05819725684306,115.08839656853988,96.99129965231167,265.7751039877799,109.1107353990703,91.8579601683537,116.08777591096472,142.84107075397134,98.21151317772022,123.72135587400466,134.67955519481558,133.75290563618495,108.49635535235078,141.62946900186802,94.92038938978612,128.45236195185345,109.53158921986535
1991-10-01,114.65388874947438,107.5766571178027,127.23219181575976,140.49270289509082,141.74889936819878,131.07971268045299,109.46830716878726,115.5687291399318,102.54519497279483,223.81309803368563,109.24201936871636,97.57215730777423,117.32174851574383,127.85298700196788,98.56323616700215,119.45927170359455,127.77014441563243,130.4626250202948,123.91316504557494,140.21965486795858,94.96083517126766,130.30858680532805,111.18734342976701
1992-01-01,114.55788798681782,107.08568194789369,147.75109007193137,142.34342221742438,139.4045512197746,129.28644212740411,108.12927933692173,115.27999211449256,104.74471759210223,202.8992522813522,107.99816501640952,97.41735580364654,119.06525984044559,120.90554683137572,100.03637007725861,117.41673184432817,124.97778801689368,127.84477676985448,130.8214817211275,135.97389635328798,99.44701164732858,134.8767623808618,115.3842289386252
1992-04-01,116.24336724389374,107.69126610455898,145.55092573004805,146.44574192981034,142.5026478832147,128.66279296864735,109.67277783147867,118.088997820308,105.84601688578108,192.88244206728982,107.62663465596428,99.40752424661882,119.9137524145377,113.56182195840474,101.75000178934694,119.67522746555396,128.21881850470783,128.325518092784,151.74397842632283,139.3630589384946,107.90919407314502,138.84268540831607,123.16072070164157
1992-07-01,116.60983011034652,107.3311727950806,116.85060990901832,138.20500579823167,145.8524652441022,124.81820470011706,115.49068684610782,120.00623057363313,111.21409361677915,185.9054345809046,107.68010822859134,100.82088479278025,120.74621231317019,110.96701127817285,102.89584938600733,118.86733129939498,129.88507734799242,128.72884513497883,162.0467981095706,132.96969205781082,118.14814522028418,146.9679218130111,125.40784638486056
1992-10-01,116.46383800003194,109.34353569749777,117.70701796467611,129.80490501130208,146.2129567783937,119.3479887148477,113.40749707859675,119.49612759516344,115.58528964776188,182.90403695758036,108.37770179158083,99.93337605697221,119.79673376975342,112.118476872709,104.75520700127886,119.07899526126782,130.58563141812553,129.51239114986592,161.60093996874895,116.9319727927156,119.62644576357387,140.95463812630229,124.15046759896585
1993-01-01,114.62256762318803,109.725056733028,141.1452740680349,124.00613743165957,137.84818549062064,118.67765042644464,110.68122157604499,116.06700470426429,114.09636123934838,161.70793413088182,106.77883760408486,98.88065778571729,117.46899750075868,110.34642958460792,107.5927550290997,117.09895776342464,126.43038085260305,120.89538791450018,152.83934960424122,115.67206294646233,116.08119918687362,131.88723692752868,121.84216845582344
1993-04-01,112.88539500301209,109.4162720560181,138.47077322018637,120.45791808138799,133.369005934075,116.66071091787849,110.9631221722272,116.37136302404923,110.47001969682496,151.6892813798545,106.20047300618255,97.1759533306014,116.947991574461,106.13452625281425,102.75276321518754,114.9214910009435,123.4297621948723,118.96448371837553,150.05738268702888,114.92458102229912,116.34231476323474,123.95609505240036,117.02949900295643
1993-07-01,111.42052807495517,108.81589503301714,112.7383134925896,115.86753914710108,128.44827435524698,116.23590982898402,107.41571845283548,116.79868079203946,111.09949046333035,150.6000591183573,105.76437712061426,96.45506107147483,114.30835960078309,107.63964544930994,101.96473951435762,109.93542538789717,115.97539427427257,115.40256197272411,150.06411719669526,109.24300456871751,116.72492554370929,122.31313092012942,117.39730866430438
1993-10-01,110.85029130771798,108.87234335812943,111.29637782981767,110.6963462227759,123.07217878492271,114.75926694715022,109.30000138521135,117.27908733179136,113.44467495203182,134.15842907547378,103.88424566486364,95.75344145857092,112.9057731208032,107.52570553382668,104.07253740067625,108.13121634973908,112.78754066258348,114.02105271843135,146.16849355843382,103.10865598099065,121.29950082067184,115.48496180579698,119.45236404858252
1994-01-01,110.92408200701036,113.1950429616157,121.0770546367329,107.91611367564713,116.97458402348903,114.07601275318021,111.08645368305694,119.29178988966662,115.34622979888557,114.54428999386947,104.04828389167591,93.85461774063516,110.74994371419646,104.72302375128712,104.72326569721817,106.7286405406826,112.05715532828359,112.59277324949075,137.7368042543882,104.56079003284388,119.64510039670054,108.9916226444102,114.7539168502461
1994-04-01,109.88804880103288,109.57563218518432,125.89612427589027,108.19771912187775,121.35910095028288,116.47217067340215,108.63280573076038,119.1680286166835,112.05009036561485,109.88567989082242,103.38969883728565,92.41920815115252,110.04461469579346,104.4635642958707,102.2986432901749,106.519084496903,112.5016306627299,113.07385646601409,135.82375168577244,105.08290564699335,121.07713875893754,113.76130177512103,112.91432649208316
1994-07-01,108.43843981820913,107.81605047101779,102.4625997087506,105.50786349607729,119.71318359627386,113.4314313797752,109.6829781819984,115.47813088347979,110.20258778722037,107.52556646036325,101.6501344810524,93.02286556665265,109.13260988840796,103.85739732422593,98.15327352997448,108.40832752120077,118.35903263677642,111.39137266573368,132.32347738235276,104.733638854325,122.86670569090899,106.28276685449626,111.52762906587866
1994-10-01,107.50660874145647,106.27743956799829,103.2663694239709,102.10982200369445,123.3959961307674,108.23269494517649,103.87758777937078,114.86530274688555,112.88548155093686,106.4153925705038,102.67637602942106,93.59147724128962,108.45708021849642,102.76745153206494,98.58393510074019,109.76177080974682,121.42565103135246,108.15051210444916,127.72268450150804,104.71273383461785,123.13350878175812,100.56198132445658,107.4142996575139
1995-01-01,108.07666719272432,110.61681556638797,123.12344405149534,102.0741948002611,119.56808281704019,107.41848096825667,102.44814774971654,112.05901680936401,110.55726069324878,106.09316247538248,102.83354467565783,97.00725248961267,107.87524757877325,101.58507537348663,100.32900582696159,107.83947085564284,119.44022528250724,108.076519092904,118.18149146748603,105.3215287987726,119.95497615640087,93.27396835068983,104.66460184139795
1995-04-01,103.53298615398126,103.39741099635475,113.38830828068899,101.69856600587657,111.09185678537965,102.38543380659726,101.37989285892071,109.26144427892211,109.00369199042527,107.2075864965676,100.63401872980232,95.9429638461861,102.58646349069171,100.4955603091756,95.666095638309,103.89762028957836,117.28546370318995,105.5631077881768,109.08395680022618,102.49935113830648,114.7473306441839,83.51068284340751,97.78748758324555
1995-07-01,100.2718884399294,101.23050316315674,92.04020830211941,97.05581495994694,103.74317949809378,96.09229784810208,95.90508654359228,108.10846128421441,107.5838293279567,105.93716238251965,100.4023450762795,95.79675237467575,96.15875566284397,100.17371227946984,90.84335003920245,101.53529147541853,115.63330745331456,102.32404189592458,103.29815866480938,98.71656232837003,108.61714816173635,81.96013715232499,96.47856103340092
1995-10-01,98.9099895296572,100.4330614337416,85.70408986271185,92.97949538044313,101.88284758190062,97.78073716300231,93.97165646780304,109.61650073622783,107.07218667239351,105.14851185262715,101.0287284310249,94.53040445422543,95.51615159225312,100.6502057088184,89.6310307384369,100.27919473243924,112.85255532159545,96.67004985811472,98.67341280082492,98.05677951127099,102.5249775272351,87.82994255515999,95.73394541168204
1996-01-01,99.61457283362283,102.64090476449802,97.37501538915909,94.64850477220061,101.33672720711374,97.50626682684403,92.42491240717163,111.24205355495748,107.03555362813896,102.89594749072097,99.81396724194596,93.77992650936592,95.3620676412091,100.8527309698265,91.29938149164386,100.8719305197193,111.10831340881975,93.45767802516191,94.14606274531604,99.31210045075923,103.42613786595864,83.3116554541162,96.14568037911438
1996-04-01,99.13488272924006,99.03636322017366,99.37704665186747,99.9826559318648,100.9021855704696,99.81495910853083,93.75652180229554,108.5974380691648,105.49282294008647,103.56042044051334,99.45442757552777,93.75648370167661,96.44739332770894,101.64702704679901,89.9752793813226,100.99488158839583,108.23510448591051,94.04710021782421,95.13348677268455,96.98042593561713,104.47258332803908,90.91505189337369,94.90473467190125
1996-07-01,98.16093083753125,98.32962078409653,86.3611978069494,100.78602848620359,104.22541797639218,96.91642194808591,89.44874815598816,106.35492797300064,103.31242562113711,103.58985750699195,99.72967430177223,97.51471655325246,96.7623274577135,99.25658595479297,92.45730959849674,96.49476903490797,119.99919750863926,101.33177334690697,97.88891934356562,99.32187383005126,95.55196113742471,94.076601331434,93.89913958539445
1996-10-01,99.22522162743944,100.15846114032206,80.58560394737945,97.33665763566927,103.39978435983123,99.63703440131258,92.63558198225435,106.07596413854957,102.47034625867431,102.91405087413169,100.81415592723066,98.4987923929713,99.23213616139658,99.65942638421349,95.45493175284099,98.599348761206,109.35887202261047,100.37407421611633,99.90541713512027,98.53948685730855,97.2698672868785,97.34304429323848,94.74983139890095
1997-01-01,101.04929705668212,103.29870616900087,122.40427,100.61462569378209,100.99290666666666,100.98500015492552,98.75228666666665,104.48303720559659,102.15071113582634,101.63227405706103,100.89909992719828,100.45698233691404,98.24938532706794,100.06223378350182,101.12786602912807,100.55897436851178,111.03141666666666,,97.09079011659657,104.1924,95.56976141979852,104.33864338724169,95.67429631063551
1997-04-01,100.52897557950384,100.58048091001746,124.32047,107.00312007628827,101.06584333333335,100.28296498738462,100.41568333333333,103.09391906335019,98.21322138359277,100.65642871667768,99.58443875820825,98.5734939675324,98.76796381488771,99.60876476142509,98.20812693617161,100.48784187364733,108.12865666666669,,99.49993658622981,99.40264,98.49956519933454,97.37474914645104,99.6788286770428
1997-07-01,99.32928619883751,98.83606677693156,82.16687,99.40332471222666,98.99532333333333,99.25780332171394,100.04031333333334,99.60442998834047,98.54466860704308,98.99016264155098,97.87665293840313,99.02587157463977,101.37520890457127,100.27837270556775,97.94929799489968,99.6336575601592,94.34196333333334,,102.00218597520478,98.19539333333334,102.01681842610054,97.62107306918237,102.53983424319067
1997-10-01,98.98858610720809,97.28474606529544,71.10839333333332,92.97893026453698,98.94592999999999,99.47423077064383,100.79171333333333,92.8186113240057,101.0913985944552,98.72112811742674,99.98139947169908,101.94365458406925,101.60744114202346,100.05063049801537,102.71471389999753,99.31952953101501,86.49796666666667,,101.40709065530218,98.20957,103.91385839926706,100.66553222821203,102.107040769131
1998-01-01,99.4968393817569,100.54781793506578,110.35423333333334,91.37688117284654,94.98083333333334,98.77155546776443,103.45426666666667,91.98022620805803,104.53794366153942,99.50370758977748,99.65264200073057,101.67516552007027,96.81826751826469,98.69711969876846,102.11121882808811,101.08391201349916,86.02916666666665,98.85849233211233,98.77583420411777,99.52613333333333,102.39533863869849,102.29018636118599,100.48203338521402
1998-04-01,98.0184107106492,96.68944841940514,112.30813333333333,95.1275057425366,94.89003333333335,97.66918292720713,100.65660000000001,88.92587051431532,101.56218948604585,100.55092897113902,98.94039266630988,98.60495084305721,95.17086856325348,98.2216322612752,101.18038899459333,101.87450599299365,82.77316333333333,99.24259565527065,103.30531068555827,95.7086,101.06806642439854,98.16818345013478,101.06525528534371
1998-07-01,96.33569709971454,95.51320211251088,63.557433333333336,90.83883633086138,94.30053333333332,96.02796213509505,98.31946666666666,88.27309632076695,102.55473695925825,99.9738194976867,97.39507339806487,98.40951324762814,94.97309553844065,97.57166856615221,94.77687904650719,104.131488439529,81.69522666666667,97.50750371998372,100.50173093498636,94.20453333333334,99.83756699710199,99.64287622641511,99.9025408690013
1998-10-01,94.04579157205283,94.77827618490126,59.28043333333333,83.9049964419091,91.37516666666666,95.47075697607507,100.51356666666668,85.58216494364554,103.10093891191552,98.87437354042741,96.62431271099331,97.61520907143064,92.21590642374072,95.96645481526782,87.88333590998286,102.3233142483768,76.09838333333333,92.8085922954823,95.38803091284775,94.42033333333335,94.48722760936566,101.55646028751123,97.70447963035019
1999-01-01,92.31277919628504,96.95713482726482,95.03296666666665,79.86568505647462,84.7428,93.55806927826838,98.09089999999999,80.86669683896878,104.10354029658284,98.45412084159507,93.98246548332015,95.8644791952592,90.08138621610006,94.0791284694991,85.7368481705954,97.41872951194013,78.96728999999999,87.89654246235246,92.53568758763191,95.35993333333334,85.94719749375163,101.40157428571428,95.06162183527886
1999-04-01,89.59057292075632,93.87226359867897,98.30706666666667,81.03197982430122,82.07626666666667,93.67172020560831,96.68946666666666,80.53936813058687,99.68025248533972,96.89311426525667,92.52305282584503,90.73195945121658,86.97472511592139,89.94801564917077,83.71678694122225,96.65361930688529,74.87699333333332,83.91921136345137,88.43357519002286,97.01756666666667,77.22041128156769,100.52052204851752,90.80540605058366
1999-07-01,86.78033824128367,91.5616844209329,60.61936666666667,75.32624677771439,80.20336666666667,92.4999589281367,94.6972,81.10601668609924,96.86621895090725,95.49278531614893,92.48042256173704,87.28612555713197,84.1278849754586,87.56328506553466,81.48238278231783,92.0938415740435,74.46532666666667,81.68094184574683,86.49739951295108,93.46066666666667,73.31404158884953,94.32712551662173,89.31406520103762
1999-10-01,85.50147353631822,91.07064946393245,55.63503333333333,73.71591708994106,79.19126666666666,93.47510902219862,90.92973333333333,79.72929902837154,96.04047741856255,93.70129049350078,91.57670758259212,86.60683441333448,81.01278316029948,85.6923451235745,80.66933682158026,88.84525638091044,78.67642333333333,78.80283349002849,86.54308004575309,85.07693333333333,71.68652554548662,95.18967160826594,88.29904654993516
2000-01-01,84.99510398660244,92.59538053239343,84.8927,72.72433282373076,76.51453333333333,90.90635572560477,88.42746666666666,79.44186937427128,97.7993693116576,91.02467940074906,90.76109813450903,86.78170263485538,80.2536277091674,85.36565701934262,80.06774556993467,85.11674609607132,78.51781,74.87153148555149,82.20857671020589,78.43390000000001,70.09728610714997,93.39625171608266,84.0513979766537
2000-04-01,82.75615230265153,88.81717723959987,98.62633333333333,74.9854223434113,74.67686666666667,90.62836024389706,85.3926,77.85662207539836,94.174152674158,88.99828780568406,89.19512568278158,84.2536182567488,78.56957571645064,83.96939307239391,76.54511035462049,79.37903829921866,75.06783666666668,72.63818544973545,80.05330160135783,73.72483333333334,68.4910303831823,92.79678584007188,84.26630175097276
2000-07-01,81.13408712751617,87.36004579853824,65.92966666666666,72.18656973340939,73.43493333333333,90.93979757762877,82.4797,75.78686406270242,91.76474292775782,87.98554129764265,88.68654385942557,83.38301280655527,76.78161673113026,82.90648634744757,75.84974016989989,79.43555543542057,75.04344333333334,72.60807542124542,79.83838206774408,74.98383333333332,65.56347137632825,87.53776772686433,81.65824668612191
2000-10-01,79.64392818875528,85.08461359732972,57.62123333333333,69.92625788857198,69.42790000000001,91.40955812252396,80.67006666666667,74.90572181629744,91.77741773356668,86.8814679554968,87.77343283213129,83.80291850865255,75.36512414783651,83.4275279994244,75.72729183371007,77.25220957228275,79.14797333333334,70.9648667989418,80.08668767618626,73.3344,63.533369854485784,84.95889462713387,80.19237490272373
2001-01-01,79.64090409874525,87.3723263217983,85.86863333333334,70.12551871838753,66.62443333333333,89.24987514441273,81.857,75.33093595025262,92.67072051057688,87.60344148490857,86.38357719785587,83.42534079972204,73.37710029065165,82.03028867143935,75.52841182841104,74.78604146399618,82.93570333333334,71.02156602564104,71.79128980149066,74.34856666666667,61.93864508870387,84.30568990116802,77.67176924124514
2001-04-01,78.2739180523326,85.75801699494964,111.96276666666667,72.53178724396273,66.34066666666666,87.18752167297434,80.96093333333333,74.71793587252235,88.25522456940223,87.16615145406477,85.6275375663668,81.70229668181948,71.75931416276491,80.44703561055748,67.27455695124071,74.02378775173325,80.37744333333335,69.93717686609686,73.88484180503285,70.93413333333334,60.860665226091356,89.09686001796945,75.68670469520104
2001-07-01,76.27609487388192,84.70177268453075,87.84193333333333,70.27783634835521,65.3672,85.29921729079521,77.38510000000001,73.65571829252494,86.912672503147,87.22488571271204,84.78267855619833,79.34193340668463,69.12714231299903,78.1374263469679,63.26039865951299,73.01880096199699,77.00439,67.29757155270654,66.2372881927533,73.24436666666666,58.63389356992809,85.8066251572327,72.30294064850844
2001-10-01,72.61930555734656,80.88084032245007,56.91143333333334,66.17427299410535,62.54076666666666,77.35403494898524,72.70846666666667,72.18599660577796,84.32584333609653,86.53542059925094,82.81890262239098,77.10264920423508,64.34263578408088,76.31592299049059,61.37847974531574,69.16297442225158,81.68730333333333,63.22019881969882,59.48110901778467,71.25083333333333,55.504581791557406,81.13149241689128,68.47186732166018
2002-01-01,70.35472945956529,80.49699275120447,95.14229999999999,60.95710370716866,56.5225,73.68451163822677,70.64106666666666,70.98498682471823,80.53388283902859,87.11588517294558,81.1386548077168,75.05053254480703,59.62773843726674,74.81250510726578,58.53071991273172,65.75043162484869,81.58037333333334,59.14631673789174,53.67733255110324,67.60170000000001,52.50425490516276,76.32844359389038,65.02534647859922
2002-04-01,69.50303151792849,80.68254916273827,117.41323333333332,60.65589864765164,53.22353333333333,76.00673542482792,69.69803333333334,69.75146025391889,78.28920929047312,87.97809541749284,80.44108171716914,74.68011549642411,57.734956116124955,73.40483349282296,55.20694450599038,64.15136854847584,79.28864333333333,56.822965887260885,47.751860298132975,64.1999,50.53779039974239,75.3714177178796,62.600398514915696
2002-07-01,69.3377810638246,80.98366476650705,104.20636666666667,60.24996363415099,51.921933333333335,78.51162396476552,71.09253333333332,69.85464354190958,76.98576417365139,87.81996003525006,80.33858751412286,75.51738545328199,57.09154282983874,73.27396547229318,55.19853720161951,64.0769909816221,75.71525000000001,56.97072648962149,46.02629775662313,63.425266666666666,48.90197764616587,76.5547111410602,59.87567660181582
2002-10-01,69.55344120961024,79.74419811540866,78.6621,62.60111990036129,52.511199999999995,80.01912911825245,73.12203333333333,69.39856171783909,76.67562502993461,86.96743559154,80.95919714994436,76.80479154047352,57.809652566103466,74.12904414265329,58.21484587794034,66.26382548053996,72.44681000000001,58.52217805046805,45.778623791602094,63.711299999999994,47.4625478571538,76.61874091644205,58.93472559662775
2003-01-01,71.39799207797225,83.05529652163263,107.5621,64.37907707168664,54.42433333333333,82.84470168536839,74.03583333333334,69.0583851276072,76.02582945258052,86.8592106190791,80.86377412523255,79.77206982173708,58.40524710366199,75.32430891223274,61.026085624746436,67.0455874564396,73.78068666666667,59.79310177045176,47.409916906501365,61.178733333333334,47.26980718140976,76.6684326325247,58.82166881322957